Regional Weather Roundup
Issued by NWS

Home | Current Version | Previous Version | Text Only | Print | Product List | Glossary Off
Versions: 1 2 3 4 5 6 7 8 9 10 11 12 13 14 15 16 17 18 19 20 21 22 23 24 25 26 27 28 29 30 31 32 33 34 35 36 37 38 39 40 41 42 43 44 45 46 47 48 49 50

000
ASUS43 KIND 042009
RWRIN

WEATHER ROUNDUP FOR INDIANA
NATIONAL WEATHER SERVICE INDIANAPOLIS IN
400 PM EDT SAT JUL 04 2015

NOTE: "FAIR" INDICATES FEW OR NO CLOUDS BELOW 12,000 FEET WITH NO
SIGNIFICANT WEATHER AND/OR OBSTRUCTIONS TO VISIBILITY.

* - STATION DOES NOT REPORT WEATHER SUCH AS PRECIPITATION OR FOG.

+ - STATION NOT QUALITY CONTROLLED BY THE NATIONAL WEATHER SERVICE.
    USE DATA WITH CAUTION...ESPECIALLY DEWPOINT AND RELATIVE
    HUMIDITY OBSERVATIONS.

INZ001>003-010>013-019-020-042100-
NORTHWEST INDIANA

CITY           SKY/WX    TMP DP  RH WIND       PRES   REMARKS
GARY /AIRPORT/ MOSUNNY  N/A N/A N/A NE8       30.01S
KNOX *+        MOSUNNY   79  55  44 NW5       30.00F
LA PORTE +     MOSUNNY   81  60  49 W6        30.02S
MICHIGAN CITY+ SUNNY     77  54  44 N6        30.02S
MONTICELLO +   MOSUNNY   78  60  54 W5        30.01S
RENSSELAER +   PTSUNNY   79  59  50 CALM      30.02S
VALPARAISO     SUNNY     79  58  48 SW6       30.02S

$$

LMZ046-743>745-042100-
SOUTHERN LAKE MICHIGAN

STATION/POSITION TIME  TEMP    WIND        PRES    WAVE
                       AIR SEA DIR/SP/G            HT
                 (UTC) (F)     (DEG/KT/KT) (MB)    (FT)
BURNS HARBOR     2000   71      60/  7/  8 1016.9R
MICHIGAN CITY    2000   67      20/  6/  6   N/A
5NW MICH CITY    2000   68 67   70/  4/  6   N/A     1

$$

INZ004-005-014>016-021>024-042100-
NORTH CENTRAL INDIANA

CITY           SKY/WX    TMP DP  RH WIND       PRES   REMARKS
GOSHEN         SUNNY     77  59  53 W3        30.01F
LOGANSPORT +   PTSUNNY   79  52  38 W3        30.03S
PERU/GRISSOM   MOSUNNY   78  58  50 NW6       30.01F
ROCHESTER +    MOSUNNY   81  57  44 N6        30.02F
SOUTH BEND     MOSUNNY   80  57  45 CALM      30.02S
WARSAW +         N/A     77  57  50 CALM      30.02S

$$

INZ006>009-017-018-025>027-042100-
NORTHEAST INDIANA

CITY           SKY/WX    TMP DP  RH WIND       PRES   REMARKS
ANGOLA *+        N/A     81  75  83 VRB3      30.02S
AUBURN +       SUNNY     79  52  38 W7        30.03S
FORT WAYNE     CLOUDY    79  57  46 N8        30.02S
HUNTINGTON +   MOSUNNY   77  56  48 W5        30.01F

$$

INZ028-029-035-036-043>045-051>053-042100-
WEST CENTRAL INDIANA

CITY           SKY/WX    TMP DP  RH WIND       PRES   REMARKS
CRAWFORDSVL +  MOSUNNY   77  53  43 CALM      30.03S
GREENCASTLE +  MOSUNNY   77  55  47 CALM      30.03R
LAFAYETTE      SUNNY     78  56  46 VRB3      30.01F
TERRE HAUTE    PTSUNNY   80  62  54 NW6       30.01S

$$

INZ030>032-037>040-046>048-054>057-064-065-042100-
CENTRAL INDIANA

CITY           SKY/WX    TMP DP  RH WIND       PRES   REMARKS
CP ATTERBURY + MOSUNNY   79  61  53 W3        30.02S
FRANKFORT +    MOSUNNY   80  60  50 MISG      30.04S
GREENWOOD *+   PTSUNNY   79  59  50 W6        30.03S
INDIANAPOLIS   MOSUNNY   80  58  46 W7        30.01R
-EAGLE CREEK   SUNNY     80  58  46 NW6       30.01S
KOKOMO *+      SUNNY     81  59  47 CALM      30.01S
MARION +       SUNNY     76  56  49 NW5       30.02F
MT COMFORT *+  SUNNY     81  46  30 N7        30.02S
SHELBYVILLE    PTSUNNY   80  62  54 VRB3      30.01S
ZIONSVILLE +   SUNNY     79  57  46 N3        30.03S

$$

INZ033-034-041-042-049-050-058-059-042100-
EAST CENTRAL INDIANA

CITY           SKY/WX    TMP DP  RH WIND       PRES   REMARKS
MUNCIE         MOSUNNY   79  58  48 MISG      30.02S

$$

INZ060-061-067>069-081>083-085>088-042100-
SOUTHWEST INDIANA

CITY           SKY/WX    TMP DP  RH WIND       PRES   REMARKS
EVANSVILLE     PTSUNNY   82  66  58 MISG      29.99F
HUNTINGBURG *+ PTSUNNY   81  66  61 CALM      29.99F
WASHINGTON +   MOSUNNY   80  63  55 CALM      29.99F

$$

INZ062-063-066-070>080-084-089>092-042100-
SOUTH CENTRAL AND SOUTHEAST INDIANA

CITY           SKY/WX    TMP DP  RH WIND       PRES   REMARKS
BLOOMINGTON    MOSUNNY   81  65  58 VRB3      30.01S
MADISON *+     MOSUNNY   81  61  50 CALM      30.03S
NORTH VERNON + MOSUNNY   82  61  47 CALM      30.02S
SEYMOUR +      CLOUDY    81  64  57 E3        30.00F

$$



USA.gov is the U.S. government's official web portal to all federal, state and local government web resources and services.